軌道要素
Epoch 2017 Feb. 16.0 TT = JDT 2457800.5
T 2017 Feb. 3.05939 TT MPCW
q 2.7815758 (2000.0) P Q
n 0.08755379 Peri. 308.49083 -0.36161721 +0.89242391
a 5.0228795 Node 298.25786 -0.73124058 -0.45103107
e 0.4462189 Incl. 17.83920 -0.57837722 +0.01226947
P 11.26
From 144 observations 2006 Apr. 5-2017 May 5, mean residual 0".5.
|